User: anonymous   Login
Location: Balmoral
(33.0667°S, 151.5833°E)
Time: 08:56:38
(UTC+00:00)
Language:

NOAA 6 - Orbit

View from above orbital plane
View from above orbital plane
View from above satellite
View from above satellite

Ground track
Ground track

The orbit data is extracted from the following two-line orbital elements,

1 11416U 79057A   21209.92621364  .00000021  00000-0  23585-4 0  9998
2 11416  98.6656 215.2420 0011202 129.0293 231.1890 14.33645372195167
Epoch (UTC): 28 July 2021 22:13:44
Eccentricity: 0.0011202
inclination: 98.6656°
perigee height: 771 km
apogee height: 787 km
right ascension of ascending node: 215.2420°
argument of perigee: 129.0293°
revolutions per day: 14.33645372
mean anomaly at epoch: 231.1890°
orbit number at epoch: 19516

The dashed part of the orbit path shows where the satellite is in the earth's shadow,  

DLR